{"data":{"norad_id":53167,"intl_designator":"2022-083AM","name":"STARLINK-3683","alt_names":[],"object_type":"PAYLOAD","status":"ACTIVE","operator":null,"country":"US","launch_date":"2022-07-17","launch_site_code":"AFETR","launch_vehicle":null,"mission":null,"orbit_class":"UNKNOWN","rcs_meters":null,"size_class":null,"mass_kg":null,"dimensions":null,"purposes":["comms"],"wikipedia_slug":null,"has_3d_model":false,"image_url":null,"decayed_at":null,"tle_current":{"epoch":"2026-05-25T01:54:17.186112Z","epoch_age_seconds":75100,"freshness":"FRESH","line1":"1 53167U 22083AM  26145.07936558 -.00003617  00000+0 -20922-3 0  9994","line2":"2 53167  53.2131 166.1848 0001203  77.8160 282.2966 15.08850944213092","mean_motion":15.08850944,"eccentricity":0.0001203,"inclination_deg":53.2131,"raan_deg":166.1848,"arg_perigee_deg":77.816,"mean_anomaly_deg":282.2966,"bstar":-0.00020922,"rev_number":21309,"period_min":95.436862449947,"perigee_km":538.8777207499,"apogee_km":540.54215472312,"semimajor_km":6917.8469377365,"source":"CELESTRAK","updated_at":"2026-05-25T13:38:17.323101Z"}}}